Theta_e
320 323 329 331 335 341 347 348 345 346 344 342 345 352 355 354 354 352 348 348 346 347 351 345 330 327 335 337 337 335 334 333 333 334 335 336 336 336 336 337 338 339 343 345 344 344 345 344 343
322 324 326 331 332 341 345 346 348 345 345 342 348 352 353 355 351 350 350 347 347 347 351 352 333 330 329 337 338 338 337 335 335 335 336 336 336 337 337 337 337 338 339 339 339 338 337 337 336
325 323 330 332 330 339 343 345 345 343 342 342 351 350 350 352 346 350 346 345 344 349 351 351 337 331 329 330 334 337 337 337 337 336 336 336 336 336 336 337 337 339 339 337 337 338 338 339 339
326 323 322 326 328 333 340 343 343 344 340 344 347 351 345 345 348 347 343 347 348 351 354 351 340 333 331 330 329 332 334 336 337 336 336 336 335 333 333 334 335 339 342 341 341 339 337 337 337
318 322 326 325 325 331 339 342 343 346 344 346 343 348 349 344 346 345 345 346 349 350 352 351 342 338 335 334 334 332 331 332 334 335 335 334 334 334 333 332 333 335 335 334 338 339 339 339 337
324 322 325 331 329 335 341 343 343 342 341 341 347 347 348 344 346 347 346 347 345 349 349 350 346 344 344 343 339 340 339 337 336 336 336 335 335 335 334 334 332 333 333 333 334 335 336 338 338
323 324 323 323 336 342 344 340 341 340 340 343 339 346 348 347 346 348 348 346 345 343 344 345 347 346 346 343 340 337 336 337 338 339 339 339 337 336 336 336 334 333 333 333 334 333 334 334 335
320 322 321 320 336 341 342 340 340 336 338 334 340 344 349 347 347 349 347 344 341 340 339 340 334 339 340 345 340 342 344 343 342 342 343 343 340 337 336 335 336 335 336 335 336 337 336 335 337
316 323 325 323 327 338 339 341 340 338 337 339 338 344 345 346 348 347 346 343 338 335 340 338 344 339 340 339 336 333 333 334 336 337 338 339 345 344 342 339 335 333 332 335 339 343 343 342 339
322 324 323 321 327 340 339 341 339 339 341 342 343 345 345 346 346 344 346 344 340 336 336 336 343 342 343 337 336 337 339 340 339 341 341 338 339 336 335 334 336 340 345 343 344 344 346 344 346
320 324 320 320 324 338 335 341 338 340 341 340 342 348 345 346 344 339 339 339 339 335 337 340 341 339 336 335 336 337 337 338 337 335 337 341 343 340 340 344 339 336 333 336 344 347 349 349 348
321 319 319 323 324 332 335 335 340 338 339 341 343 345 344 345 341 337 336 338 335 336 336 336 337 337 336 335 333 333 333 335 336 335 335 340 342 335 333 330 329 330 330 331 333 342 340 342 344
319 318 318 320 325 328 332 336 337 337 338 344 345 345 345 343 339 336 335 337 340 340 337 335 334 332 331 330 330 330 330 331 332 331 330 330 331 329 329 327 326 326 326 327 331 339 342 344 343
317 319 319 322 328 331 336 335 336 336 339 346 346 346 344 340 338 335 340 343 342 335 329 327 325 326 328 328 329 329 329 329 329 328 326 326 325 325 324 322 323 324 323 325 326 326 328 331 329
317 320 322 320 326 333 334 335 334 336 340 345 345 344 341 338 335 336 340 342 335 327 320 321 323 324 325 326 328 328 328 328 327 326 326 326 325 325 324 322 322 322 322 323 323 325 325 325 324
321 321 324 319 321 328 330 332 332 337 341 344 343 343 342 340 338 339 341 336 328 322 319 319 319 319 319 323 325 326 327 326 326 326 326 325 325 325 325 326 327 326 325 325 325 325 325 325 325
323 324 323 320 319 324 324 325 331 336 341 343 344 345 343 343 342 341 337 334 330 321 320 320 318 319 321 324 326 326 325 325 324 322 320 319 319 321 321 324 326 326 325 323 323 324 325 325 325
324 324 323 322 320 319 324 324 333 336 342 343 344 345 344 342 339 338 336 334 331 326 323 321 320 321 322 324 326 326 326 325 318 316 317 317 320 317 318 324 325 327 327 325 322 321 321 321 321
322 323 324 322 320 321 323 324 331 335 341 341 342 343 340 339 334 336 334 333 333 332 327 323 321 321 323 327 326 325 322 320 317 319 316 317 319 320 316 322 320 319 323 326 326 324 324 321 319
323 324 323 322 319 321 320 325 332 334 336 338 340 341 338 337 334 332 332 332 331 331 329 324 322 322 325 325 322 319 319 319 317 315 315 314 314 316 321 324 322 320 320 320 321 320 317 317 318
323 323 323 323 320 317 319 322 329 332 332 333 335 339 337 336 333 331 330 330 331 331 331 330 329 328 327 324 323 322 322 320 320 320 319 318 315 313 316 320 322 323 321 317 318 319 320 316 315
324 321 321 321 321 323 317 321 324 325 333 333 334 335 334 333 332 331 330 330 330 330 329 328 328 327 326 325 321 321 320 319 317 314 313 312 310 311 313 313 316 320 320 321 319 320 319 318 318
324 319 319 318 320 320 321 321 320 325 328 332 333 334 333 332 331 330 326 322 323 319 316 317 319 321 320 315 312 313 313 312 311 311 311 311 311 311 311 312 312 313 314 318 319 316 315 316 317
317 319 317 319 319 322 320 323 323 328 329 329 331 332 332 330 326 317 316 316 316 314 314 313 312 311 310 310 310 310 311 311 310 310 310 310 309 309 310 311 311 312 312 314 316 317 316 316 317
323 324 323 320 321 321 319 325 327 325 323 329 330 331 329 321 317 316 316 315 316 315 314 313 312 313 311 311 310 310 310 310 309 309 308 308 308 308 309 310 310 310 312 314 316 317 317 316 315
319 322 322 321 321 321 320 326 326 323 320 320 323 325 319 317 315 315 314 313 313 313 313 312 312 312 311 310 310 309 309 308 307 307 307 307 307 307 307 307 308 308 309 311 315 317 317 317 316
321 322 318 324 321 323 322 323 324 323 321 321 321 319 317 314 314 313 313 313 312 312 312 312 311 311 310 310 309 308 307 307 307 307 307 306 306 306 306 306 306 306 307 308 311 314 314 312 313
319 318 324 324 325 323 322 322 322 325 324 321 321 318 315 314 313 313 313 312 312 312 311 311 311 310 309 309 308 307 306 306 306 306 306 306 306 306 305 304 305 305 305 306 308 311 313 311 311
321 321 319 322 324 324 323 322 321 323 323 323 320 316 315 314 314 314 313 311 311 311 311 311 310 309 308 308 307 306 306 306 306 305 304 304 304 305 305 305 305 305 304 306 306 307 310 310 309
321 320 321 325 325 322 323 324 319 319 318 319 318 315 314 314 314 313 312 312 312 312 311 310 309 308 308 307 306 306 306 306 306 304 305 305 304 304 304 305 305 305 306 306 307 306 307 308 310
Wind_Speed
3 3 2 1 1 3 4 2 1 2 1 2 3 7 10 8 4 6 2 4 9 10 11 14 15 15 15 15 15 14 13 13 13 12 12 11 10 9 8 8 8 8 8 7 6 6 6 6 6
2 6 1 1 4 6 3 1 4 4 1 2 1 3 6 6 5 2 1 4 6 7 8 10 13 12 13 13 13 12 11 11 10 10 9 9 8 7 6 5 5 5 5 5 4 3 3 3 3
5 2 1 3 2 5 4 4 3 2 2 1 2 6 4 3 3 4 3 7 5 3 5 8 12 11 11 12 11 11 11 10 9 8 7 6 5 5 4 3 2 3 3 2 1 1 1 1 2
3 2 3 5 5 5 2 7 5 6 3 2 4 5 2 2 2 6 4 4 5 6 4 5 9 9 9 9 10 9 8 7 6 5 5 5 4 3 3 2 1 0 0 2 2 3 4 4 4
2 1 4 4 3 2 2 6 7 4 2 3 2 2 2 2 2 5 5 4 5 6 8 6 5 4 4 3 3 4 5 4 3 2 2 2 2 3 3 3 3 3 4 4 5 7 7 7 7
2 0 3 5 3 3 5 7 8 4 4 6 5 4 1 3 3 5 5 5 5 6 7 8 6 5 3 1 0 2 2 2 2 2 3 3 4 6 6 6 6 7 7 8 7 9 10 10 9
3 2 3 2 5 5 6 8 2 6 6 6 6 5 2 2 3 3 6 7 8 7 6 6 5 3 3 2 1 2 4 5 5 5 5 6 7 8 9 9 9 10 10 11 10 10 11 11 11
3 2 3 2 6 5 7 5 3 5 5 7 3 5 5 5 7 6 8 9 10 9 8 8 6 4 5 3 2 1 2 4 6 7 8 8 9 10 10 10 11 12 14 13 12 12 12 12 12
2 1 3 4 6 7 9 6 2 2 8 3 2 3 5 12 10 8 8 9 9 10 9 10 7 5 6 4 3 1 3 5 6 8 8 8 7 9 10 11 12 14 14 15 16 15 14 13 13
1 1 4 4 7 10 15 9 10 6 5 4 6 8 13 13 11 8 6 6 6 9 9 7 7 6 5 6 5 3 3 4 5 6 8 8 9 9 11 12 13 13 15 15 16 17 15 13 10
2 2 1 3 6 16 14 13 6 12 9 12 16 14 14 14 10 7 6 6 7 7 9 9 9 7 3 3 5 6 4 5 6 6 6 6 7 8 8 10 11 11 11 11 10 9 8 9 10
3 0 1 5 6 13 14 11 9 7 6 7 11 16 15 11 10 7 5 5 7 5 7 9 10 9 7 5 6 8 7 7 7 7 6 3 3 3 4 5 8 9 12 13 12 9 9 10 10
1 3 4 6 9 8 9 6 6 4 2 12 16 15 12 11 8 6 7 7 8 7 7 7 7 7 7 8 9 11 10 8 5 5 5 5 4 4 5 6 7 8 8 9 8 7 7 7 7
3 6 7 6 7 4 9 5 2 2 4 14 14 12 9 8 8 9 8 8 7 7 6 7 7 8 9 9 10 10 9 9 7 6 6 6 6 6 6 6 7 7 7 6 5 4 4 4 5
4 5 7 7 4 4 6 3 2 3 7 12 10 9 9 8 8 8 7 7 7 6 7 6 6 7 8 8 8 8 7 7 7 6 7 8 9 9 9 8 7 6 5 3 2 2 4 4 5
3 4 6 4 1 4 5 15 2 5 9 10 10 8 8 8 9 6 6 6 6 5 5 4 3 4 5 5 5 7 8 7 8 8 8 8 9 10 11 9 8 5 2 2 4 4 4 6 6
5 3 4 3 3 4 5 9 7 9 10 11 10 9 8 8 8 8 8 4 3 4 2 1 2 4 6 7 8 9 9 9 8 10 10 9 9 9 8 9 9 7 3 1 4 6 6 7 8
3 4 4 5 3 5 11 17 9 12 12 13 11 10 9 8 9 10 7 7 7 7 6 5 6 8 10 11 12 14 15 15 13 10 10 11 9 10 10 6 8 9 6 5 4 4 5 6 9
7 4 1 2 3 3 4 9 11 14 13 12 10 10 8 8 9 10 11 10 10 9 9 9 10 12 14 12 11 12 12 12 14 11 16 17 13 13 16 12 11 12 13 13 12 14 14 15 10
3 2 3 2 3 4 4 5 5 12 12 10 11 11 11 11 11 15 14 12 10 9 11 13 14 16 14 12 12 11 14 15 18 19 20 18 17 18 16 16 14 13 13 12 12 11 12 12 11
2 2 1 4 5 1 4 2 3 7 8 9 11 13 12 13 13 14 15 13 12 13 14 15 17 17 17 18 16 15 15 16 16 18 21 23 26 21 19 18 19 18 15 17 15 14 12 15 11
1 1 4 5 4 7 4 3 2 2 12 13 14 15 15 14 15 16 14 13 12 14 14 16 18 20 18 19 16 14 13 15 15 16 17 22 25 24 20 19 18 19 21 20 20 16 13 13 13
2 3 2 1 2 3 3 4 3 1 8 14 14 16 15 15 13 12 12 13 11 7 8 11 13 12 12 11 11 11 13 15 17 19 21 25 25 24 25 23 20 19 20 23 23 24 19 15 14
2 2 3 2 1 2 3 3 2 2 4 7 13 15 15 13 7 2 3 4 5 5 5 6 6 7 9 12 15 17 18 20 23 25 27 27 27 27 25 23 21 20 21 23 25 24 21 18 16
4 4 3 1 0 2 2 3 3 4 6 7 12 14 10 4 2 1 4 6 4 4 4 5 7 8 13 16 19 20 19 20 23 25 26 26 27 26 25 23 22 21 19 20 21 22 24 23 19
4 2 2 4 3 6 1 2 1 2 1 2 6 6 5 3 0 1 2 3 4 5 7 7 9 14 18 18 17 17 20 23 23 22 23 23 24 23 22 23 24 23 20 17 17 17 20 16 18
2 1 2 3 1 3 2 2 6 5 4 3 5 6 5 3 3 2 3 5 7 8 9 10 13 17 19 19 18 22 23 23 22 21 21 21 21 21 22 21 19 19 20 19 16 15 14 13 14
1 6 1 1 3 4 2 3 3 7 9 5 6 6 4 4 4 3 5 8 9 9 10 12 16 20 20 19 23 23 24 24 22 21 22 22 23 21 20 19 18 18 19 18 17 15 15 15 12
2 2 4 1 2 3 5 3 2 4 6 9 8 6 4 5 5 5 7 7 7 10 13 17 21 24 22 23 25 25 25 24 22 21 22 21 23 21 21 20 18 17 17 15 15 18 16 14 12
2 1 1 2 2 1 2 7 2 3 4 3 7 4 2 4 4 6 6 7 10 12 17 22 23 24 23 24 25 25 24 22 21 22 22 24 23 26 24 21 19 17 16 14 14 17 22 20 15
Wind_Direction
20 149 103 254 68 67 71 98 312 161 327 293 347 45 73 39 6 94 23 67 124 145 156 161 161 158 158 150 143 140 135 131 128 123 118 114 110 104 101 99 97 93 90 87 87 83 81 83 86
168 132 80 87 65 79 89 213 195 163 341 149 307 14 55 68 44 77 108 120 131 146 153 158 164 160 161 157 150 143 135 130 128 124 121 116 111 109 107 104 102 98 91 85 75 71 69 71 66
148 116 316 64 61 64 98 201 140 182 146 321 86 53 10 25 23 14 99 125 122 109 138 157 165 163 162 165 163 157 152 146 139 131 126 123 123 122 115 110 103 89 85 76 59 359 333 336 344
154 150 88 47 89 65 60 155 159 134 142 43 73 76 137 315 353 7 67 82 82 91 101 147 160 164 166 170 172 171 169 167 158 152 150 151 157 165 161 165 170 163 333 322 306 296 286 284 285
73 70 65 72 50 46 95 138 142 101 130 65 17 117 83 75 38 68 74 72 79 96 93 103 131 144 155 176 187 182 176 183 192 202 205 207 227 231 234 243 248 242 244 259 268 276 276 277 278
95 36 34 83 76 96 126 141 138 100 88 106 110 118 68 15 63 63 82 92 96 83 87 93 126 139 137 130 245 302 294 254 241 261 279 280 278 275 270 264 264 262 266 268 269 275 278 280 282
82 55 73 84 117 124 147 139 141 119 118 107 125 121 336 238 135 92 89 89 81 77 81 83 79 101 91 102 45 314 317 302 295 287 282 281 276 275 279 280 277 275 276 277 278 278 283 287 289
97 93 119 152 153 117 150 125 133 101 89 118 176 152 169 136 128 112 89 82 75 65 70 61 65 81 95 71 114 299 294 286 280 277 279 279 275 272 275 279 284 284 286 283 279 278 280 284 288
154 86 92 143 172 131 156 139 156 77 139 137 175 156 86 120 119 116 111 95 76 57 68 49 54 101 93 77 50 349 296 291 293 292 286 285 280 284 284 277 280 282 280 280 280 280 281 283 282
340 201 170 157 157 157 163 159 138 170 157 120 132 95 118 125 135 141 139 115 86 64 55 61 76 103 101 76 58 36 4 343 337 312 302 288 278 280 288 288 290 285 286 284 284 276 271 272 264
134 249 116 155 178 153 157 152 157 155 173 164 170 150 150 149 158 139 117 101 108 94 74 79 95 97 110 50 29 15 359 347 338 332 315 292 293 303 298 305 306 304 299 301 301 294 277 262 263
222 289 8 131 150 151 161 140 146 199 135 145 153 151 157 166 159 149 124 127 134 116 90 83 81 84 77 63 42 28 22 6 0 3 0 337 299 339 348 340 326 322 316 308 304 302 286 276 270
20 83 71 99 114 106 133 133 143 186 98 137 143 155 169 171 153 135 137 137 129 118 103 82 72 65 55 40 38 32 29 27 11 354 346 349 339 321 303 298 303 310 309 312 313 310 301 283 272
44 103 115 67 95 81 142 126 177 190 170 148 156 162 170 168 161 147 164 140 117 105 91 73 54 49 41 28 30 22 15 14 4 351 343 342 333 319 303 288 275 266 270 291 320 330 334 325 316
100 103 102 43 55 84 138 149 193 143 172 154 167 164 156 164 168 170 167 147 137 124 104 87 47 35 24 16 4 359 359 360 357 350 337 330 324 316 306 295 287 284 280 249 189 62 32 17 352
72 96 162 20 74 147 232 224 176 161 176 164 164 160 159 166 173 173 202 181 145 132 115 98 56 359 337 327 324 327 330 340 343 344 346 342 340 335 333 328 323 309 311 28 39 46 46 21 6
39 93 118 105 53 173 218 242 195 176 184 169 167 166 166 163 177 189 212 226 195 185 194 246 245 301 308 305 299 304 307 309 321 327 324 324 330 330 334 326 312 298 292 8 51 37 42 46 32
75 114 88 134 67 203 216 247 185 185 187 178 171 168 181 177 186 201 225 251 247 246 258 265 277 288 299 294 294 293 295 292 299 312 311 305 319 309 303 286 289 278 253 271 297 327 353 22 18
120 111 101 182 176 277 235 271 216 185 189 185 181 182 180 196 203 236 244 254 265 271 271 273 278 284 291 302 308 306 302 299 306 309 318 314 314 306 298 287 279 271 267 270 271 279 283 286 293
105 98 36 279 353 319 351 17 150 192 200 201 191 194 203 212 227 239 244 254 264 280 281 277 276 281 294 301 298 302 303 302 305 311 314 318 322 317 306 294 289 279 272 274 275 271 275 280 277
50 39 297 303 345 67 321 150 175 196 203 202 207 213 218 226 236 248 259 264 277 280 281 285 287 291 293 297 302 305 306 305 305 309 310 310 318 320 314 301 294 290 284 277 272 275 264 273 277
290 259 283 287 294 315 349 300 194 214 219 221 215 215 224 228 239 254 264 273 274 277 282 292 292 291 298 300 304 304 307 306 309 315 310 313 309 311 312 306 300 289 280 273 271 268 253 265 266
11 6 6 359 155 212 30 274 103 226 227 225 219 219 224 233 244 264 294 288 277 294 312 310 314 315 305 312 332 339 329 318 313 310 311 311 309 308 307 304 299 292 286 274 267 267 266 261 257
334 250 65 88 161 193 20 316 137 275 291 226 213 218 222 233 250 304 322 324 317 319 322 329 335 329 335 338 332 330 326 324 318 314 311 306 304 303 302 302 300 297 291 280 268 265 257 250 247
14 352 328 221 349 340 17 256 340 296 254 235 208 210 216 205 177 302 315 311 329 327 330 327 327 325 331 330 326 325 323 319 311 307 305 303 300 297 295 295 299 298 297 286 274 258 247 247 237
48 355 311 311 310 319 215 234 55 221 342 287 249 204 148 145 29 290 302 322 316 315 311 310 322 325 326 324 320 317 313 309 304 301 301 299 297 299 299 291 288 286 292 295 277 258 247 235 245
130 259 65 114 119 263 297 235 248 210 202 167 140 142 140 152 158 266 263 280 296 294 295 310 320 320 319 317 317 316 314 309 303 299 298 297 293 293 294 290 292 294 285 281 280 259 249 236 232
282 129 228 106 288 294 240 271 287 218 223 193 179 175 173 174 214 259 289 285 279 286 302 309 317 321 319 316 315 314 312 309 304 299 295 295 295 296 294 293 289 288 287 282 270 263 245 226 228
154 190 66 64 305 283 301 304 184 262 283 248 207 187 192 206 225 285 302 305 287 296 309 318 323 321 315 315 315 312 309 307 301 295 295 294 297 293 294 291 290 290 286 282 274 259 248 233 232
342 19 178 223 203 188 303 285 167 279 304 235 183 189 203 226 279 298 308 310 302 309 317 321 321 317 315 315 312 308 306 305 300 299 300 302 297 297 294 287 284 281 280 280 271 260 248 243 229